Location: Malvern Link
(52.1333°N, 2.3000°W)
Time: 17:09:58
(UTC+00:00)

SPROUT - Pass Details

Date: 06 July 2022
Orbit: 588 x 598 km, 97.9° (Epoch: 09 August)

Event Time Altitude Azimuth Distance (km) Brightness Sun altitude
Exits shadow 01:08:46 24° 190° (S) 1,232 ? -14.2°
Maximum altitude 01:11:04 55° 259° (W) 718 ? -14.1°
Drops below altitude 10° 01:15:11 10° 338° (NNW) 1,932 ? -14.0°
Sets 01:17:24 0° 343° (NNW) 2,840 ? -13.9°
